sat.trackr.live / text

‹ back to catalog

STARLINK-33902

NORAD 65920 · 2025-225L

PAYLOAD ACTIVE UNKNOWN

§ Identity

Operator
Country
US
Launch date
2025-10-08
Launch site
AFWTR
Launch vehicle
Mass (kg)
RCS (m²)

Purposes: comms

External: N2YO · Heavens-Above · Gunter

§ Orbital elements

Epoch: 2026-05-25T00:55:01.032960Z

Period
94.10 min
Inclination
53.1582°
Eccentricity
0.0001119
Mean motion
15.30207989 rev/d
Perigee alt
474.4 km
Apogee alt
476.0 km
Semi-major
6,853.3 km
B*
4.8305e-4
RAAN
171.3180°
Arg perigee
91.7284°
Mean anomaly
268.3845°
Rev number
3,609

§ Raw data

STARLINK-339021 65920U 25225L   26145.03820640  .00013978  00000+0  48305-3 0  99992 65920  53.1582 171.3180 0001119  91.7284 268.3845 15.30207989 36090

JSON: /api/v1/satellites/65920 · /tle

For live sub-satellite position, see the globe view (requires WebGL).

§ Visibility from observer

Set your observer location to see the next 7 days of passes ≥ 10°. The values pass through the URL so the page stays shareable.

No JS? Fill the form by hand. The geolocation button needs JavaScript.